Cincinnati, OH

7:30 AM EDT on July 24, 2016 (GMT -0400)
Mt Adams | | Change Station
Active Advisory: Excessive Heat Warning

Elev 797 ft 39.11 °N, 84.50 °W | Updated 8 seconds ago

Partly Cloudy
Partly Cloudy
78.6 °F
Feels Like 82 °F
N
0.0
Wind Variable Wind from East
Gusts 0.0 mph

Today
High -- | Low -- °F
--% Chance of Precip.
Yesterday
High -- | Low -- °F
Precip. -- in
Pressure 29.99 in
Visibility 6.0 miles
Clouds Few 5500 ft
Heat Index 82 °F
Dew Point 73 °F
Humidity 83%
Rainfall 0.00 in
Snow Depth Not available.
6:31 AM 8:56 PM
Waning Gibbous, 77% visible
METAR KLUK 241053Z 00000KT 6SM BR FEW055 23/23 A3001 RMK AO2 SLP156 T02280228
Pressure 29.99 in
Visibility 6.0 miles
Clouds Few 5500 ft
Heat Index 82 °F
Dew Point 73 °F
Humidity 83%
Rainfall 0.00 in
Snow Depth Not available.
6:31 AM 8:56 PM
Waning Gibbous, 77% visible
METAR KLUK 241053Z 00000KT 6SM BR FEW055 23/23 A3001 RMK AO2 SLP156 T02280228

10-Day Weather Forecast

Almanac

Astronomy

Jul. 24, 2016 Rise Set
Actual Time
Civil Twilight
Nautical Twilight
Astronomical Twilight
Moon
Length of Visible Light
Length of Day
Tomorrow will be .
, % of the Moon is Illuminated

Today's Extremes

State Highs State Lows

Community

WunderPhotos

Upload Photos

1,927,048 photos uploaded!

WunderBlog® & News

Nearby

Air Quality

  Air Quality AQ Index Pollutant
Not available.

Snow Depth

Station Depth Elevation

Earthquake Activity

City Distance Mag. Time & Date
Minimum magnitude displayed is 2.5.

Coastal Water Temperatures

Place Temperature

Stations

Nearby Weather Stations

Station Location Temp. Windchill Dew Point Humidity Wind Precip. Elev Updated Type
                   

Watches & Warnings

Excessive Heat Warning
Issued: 3:43 AM EDT Jul. 24, 2016 – National Weather Service

... Excessive heat warning remains in effect until 8 PM EDT this
evening...

* heat index values... 100 to 104 due to temperatures in the
lower 90s... and dewpoints in the lower to middle 70s.

* Timing... highest temperatures and heat indices will occur
during the afternoon hours.

* Impacts... heat stroke... heat exhaustion and other heat
related illnesses will be possible... especially if you spend a
significant amount of time outdoors... or are involved in any
strenuous outdoor activity.

Precautionary/preparedness actions...

Wear light weight and loose fitting clothing and drink plenty of
water. If possible... spend more time in air conditioned or well-
ventilated places. Reschedule strenuous outdoor activities to
early morning or evening. Friends... relatives... or neighbors
should check on the elderly and people with chronic ailments...
who are usually the first to suffer from heat-related illness.

To reduce risk during outdoor work the occupational safety and
health administration recommends scheduling frequent rest breaks
in shaded or air conditioned environments. Anyone overcome by
heat should be moved to a cool and shaded location. Heat stroke
is an emergency... call 911.